Regional Weather Roundup
Issued by NWS

Home | Current Version | Previous Version | Graphics & Text | Print | Product List | Glossary On
Versions: 1 2 3 4 5 6 7 8 9 10 11 12 13 14 15 16 17 18 19 20 21 22 23 24 25 26 27 28 29 30 31 32 33 34 35 36 37 38 39 40 41 42 43 44 45 46 47 48 49 50
000
ASUS43 KFSD 050310
RWRSD

WEATHER ROUNDUP FOR SOUTH DAKOTA
NATIONAL WEATHER SERVICE SIOUX FALLS SD
900 PM CST WED MAR 04 2015

NOTE: "FAIR" INDICATES FEW OR NO CLOUDS BELOW 12,000 FEET WITH NO
SIGNIFICANT WEATHER AND/OR OBSTRUCTIONS TO VISIBILITY.


SDZ001>005-009-010-012>017-050400-
NORTHWEST AND NORTH CENTRAL SOUTH DAKOTA

CITY           SKY/WX    TMP DP  RH WIND       PRES   REMARKS
BUFFALO          N/A      6  -6  57 SW6       30.12S WCI  -4
FAITH            N/A      8 -10  43 E3        30.26S
MOBRIDGE       CLEAR     -1 -10  65 E3        30.32R
$$

SDZ012>016-024>037-041>051-057-063-072>074-050400-
SOUTHWEST AND SOUTH CENTRAL SOUTH DAKOTA

CITY           SKY/WX    TMP DP  RH WIND       PRES   REMARKS
RAPID CTY ARPT CLEAR      3  -4  72 CALM      30.23R
PIERRE         CLEAR      2 -10  57 NE5       30.36R WCI  -8
CUSTER         CLEAR      1 -11  57 SW3       30.05R
ELLSWORTH AFB  CLEAR     10  -3  55 SW2       30.21S
PHILIP         CLEAR      1  -7  68 NW5       30.32R WCI  -9
PINE RIDGE     CLEAR      1  -4  79 E5        30.25R WCI  -9
SPEARFISH      FAIR       0  -9  65 S3        30.16S
WINNER         FAIR       5  -7  57 S3        30.36R
$$

SDZ004>011-016>023-039-040-050400-
NORTHEAST SOUTH DAKOTA

CITY           SKY/WX    TMP DP  RH WIND       PRES   REMARKS
ABERDEEN       CLEAR     -4 -14  62 NW3       30.41S
WATERTOWN      CLEAR     -7 -14  71 W6        30.35R WCI -20
SISSETON         N/A     -5 -13  68 NW6       30.40R WCI -18
$$

SDZ017-020-022-023-036>040-048>070-050400-
SOUTHEAST SOUTH DAKOTA

CITY           SKY/WX    TMP DP  RH WIND       PRES   REMARKS
SIOUX FALLS    CLEAR      0  -7  72 NW5       30.41R WCI -10
HURON          CLEAR     -4 -12  68 N3        30.43R
MITCHELL       CLEAR     -1  -8  72 N6        30.44R WCI -13
YANKTON        CLEAR      7  -6  56 CALM      30.47R
$$

ABBREVIATIONS USED IN REMARKS
   TC - TEMPERATURE IN CELSIUS
  WCI - WIND CHILL INDEX
   HX - HEAT INDEX
  VSB - VISIBILITY




USA.gov is the U.S. government's official web portal to all federal, state and local government web resources and services.